Castle Point, NY (12511)

5:12 PM EDT on August 20, 2017 (GMT -0400)
Oak Street | | Change Station

Elev 164 ft 41.51 °N, 73.97 °W | Updated 7 seconds ago

Clear
Clear
81.7 °F
Feels Like 83 °F
N
0.0
Wind Variable Wind from North
Gusts 3.8 mph

Today
High -- | Low -- °F
--% Chance of Precip.
Yesterday
High -- | Low -- °F
Precip. -- in
Pressure 30.03 in
Visibility 10.0 miles
Clouds Scattered Clouds 6500 ft
Heat Index 83 °F
Dew Point 64 °F
Humidity 54%
Rainfall 0.00 in
Snow Depth Not available.
6:09 AM 7:47 PM
Waning Crescent, 1% visible
METAR KPOU 202053Z 36006KT 10SM SCT065 28/14 A3004 RMK AO2 SLP169 T02780139 55007
Pressure 30.03 in
Visibility 10.0 miles
Clouds Scattered Clouds 6500 ft
Heat Index 83 °F
Dew Point 64 °F
Humidity 54%
Rainfall 0.00 in
Snow Depth Not available.
6:09 AM 7:47 PM
Waning Crescent, 1% visible
METAR KPOU 202053Z 36006KT 10SM SCT065 28/14 A3004 RMK AO2 SLP169 T02780139 55007

Get Severe Weather Alerts

Thanks for signing up!

Be on the lookout for a verification email in your inbox.

You'll start receiving the daily forecast at 6 AM.

×

10-Day Weather Forecast

Almanac

Astronomy

Aug. 20, 2017 Rise Set
Actual Time
Civil Twilight
Nautical Twilight
Astronomical Twilight
Moon
Length of Visible Light
Length of Day
Tomorrow will be .
, % of the Moon is Illuminated

Today's Extremes

State Highs State Lows

Community

WunderPhotos

Category 6

Welcome to Category 6. This is the collective home for Weather Underground's featured writeups by Dr. Jeff Masters (right), Bob Henson (left), Chris Burt, and other regular contributors.

Nearby

Air Quality

  Air Quality AQ Index Pollutant
Not available.

Snow Depth

Station Depth Elevation

Earthquake Activity

City Distance Mag. Time & Date
Minimum magnitude displayed is 2.5.

Coastal Water Temperatures

Place Temperature

Stations

Nearby Weather Stations

Station Location Temp. Windchill Dew Point Humidity Wind Precip. Elev Updated Type
                   

Watches & Warnings

There are currently no watches in effect.